OPS 5798 DEB, 901

Orbit data source: Space-Track

OPS 5798 DEB, 901 is space debris in LEO originally from a launch on Tue, 06 Oct 1964 UTC launched from the Air Force Western Test Range (AFWTR). Debris objects in space refer to the collection of defunct objects orbiting the Earth. Examples of debris include non-operational satellites, rocket bodies, and fragments generated from explosions, collisions, or faulty payload assembly.

Loading next visibility...
Identifier
901, 1964-063D
Orbit
LEO
Country
Flag of USUS
Related business
Manufacturer
NAFI?
Mission
Spacecraft
Bus & Motor
Unknown
Mass
~20 kg wet, ~20 kg dry
Launch date (UTC)
1964-10-06 (62 years ago)
Launch vehicle
Unknown
Launch site
Air Force Western Test Range (AFWTR)
Object type
Payload
Rocket body
Debris
Shape & HBR
CYL, 0.6 m
Radar Cross Section
Medium (>0.1 m² and <1 m²)

Expand to show TLE details & history
Last TLE update: 13 hours ago

TLE from 13 hours ago
0 OPS 5798 DEB
1 00901U 64063D   26207.17027729  .00000107  00000-0  14289-3 0  9996
2 00901  90.2338  77.3731 0019643  14.5553 113.0538 13.55152756 51749
Epoch: 2026-07-26T04:05Z
TLE epoch observation values (Epoch: 2026-07-26T04:05:11.957Z)
Latitude
52.27781°
Longitude
-107.49806°
Altitude
1,067.658 km
Speed
7.32 km/s
True Right ascension
17h 10m 41s
True Declination
52° 07' 05"
Sunlit
Object was in daylight at epoch
Visualization orbit readout
Latitude
Unknown
Longitude
Unknown
Altitude
Unknown
Speed
Unknown
Apparent Right ascension
Unknown
Apparent Declination
Unknown
Sunlit
N/A
Visualization observer readout
Local Sidereal Time
06:20:22
Azimuth
Unknown
Elevation
Unknown
Doppler factor
Unknown
Orbital elements
Apogee altitude
1,064.995 km
Perigee altitude
1,035.811 km
Semi-major axis
7,428.54 km
Eccentricity
0.00196
Inclination
90.2338°
RAAN
77.3731°
Arg. of periapsis
14.5553°
True anomaly
113.26072°
Mean anomaly
113.0538°
Eccentric anomaly
113.15728°
Mean motion
3.38991 °/min
Orbital period
106.2 mins
BSTAR
0.00014289
Loading maneuver chart data...
Computing Atmospheric mass density...
Loading historical data...
Loading historical data...
Loading historical data...
Loading historical data...
Loading historical data...
Loading historical data...
Loading historical data...

Documentation

Showing up to 5 results
|